Header for Extended Forecast Station List Page

Search by: ID | Name | Date | Parm | Value | Avg | % Avg
Sort by: ID | Name | Date | Parm | Value | Avg | % Avg

Enter search or view all records.

Click on id for station plot
#IDNameDateParmValueAvg% Avg
0ABOM8CLARK FORK-ABOVE MISSOULA01-22-2019DISCHARGE (KAF)56567983
1AFRI1SNAKE-AMERICAN FALLS RESERVOIR01-22-2019INFLOW (KAF)1588191583
2ALFW1PEND OREILLE-ALBENI FALLS DAM01-22-2019INFLOW (KAF)4641664770
3ALPW4SNAKE-NEAR ALPINE01-22-2019DISCHARGE (KAF)61367691
4ANAW1SNAKE-NEAR ANATONE01-22-2019DISCHARGE (KAF)5898950362
5ANTI1HENRYS FORK-AT ST. ANTHONY01-22-2019DISCHARGE (KAF)47147699
6ARAI1SF BOISE-ANDERSON RANCH DAM01-22-2019INFLOW (KAF)18928566
7ARDW1ENTIAT-NEAR ARDENVOIR01-22-2019DISCHARGE (KAF)586688
8BELM8CLARK FORK-BELOW MISSOULA01-22-2019DISCHARGE (KAF)951116482
9BERO3MALHEUR-AGENCY VALLEY DAM01-22-2019INFLOW (KAF)254952
10BFEI1KOOTENAI-AT BONNERS FERRY01-22-2019STAGE (FT)MMM
11BFTI1SNAKE-NEAR BLACKFOOT01-22-2019DISCHARGE (KAF)1013121384
12BIGI1BOISE-AT GLENWOOD BRIDGE01-22-2019DISCHARGE (KAF)308234132
13BITM8BITTERROOT-NEAR MISSOULA01-22-2019DISCHARGE (KAF)38647881
14BONM8BLACKFOOT-NEAR BONNER01-22-2019DISCHARGE (KAF)30535187
15BONO3COLUMBIA-BONNEVILLE DAM01-22-2019INFLOW (KAF)349124811573
16BRNI1SNAKE-BROWNLEE DAM01-22-2019INFLOW (KAF)3576531167
17BUDW1BUMPING-BUMPING LAKE DAM01-22-2019INFLOW (KAF)566193
18BULO3BULLY CREEK-BULLY CREEK DAM01-22-2019INFLOW (KAF)4946
19CABI1CLARK FORK-CABINET GORGE DAM01-22-2019INFLOW (KAF)3660544867
20CFMM8FLATHEAD-AT COLUMBIA FALLS01-22-2019DISCHARGE (KAF)1374199869
21CHDW1CHELAN-LAKE CHELAN DAM01-22-2019INFLOW (KAF)29838777
22CHEI1FALL RIVER-NEAR CHESTER01-22-2019DISCHARGE (KAF)186182102
23CHJW1COLUMBIA-CHIEF JOSEPH DAM01-22-2019INFLOW (KAF)192752481078
24CIBW1COLUMBIA-AT INTL BOUNDARY01-22-2019DISCHARGE (KAF)15905MM
25CLFW1NACHES-NEAR CLIFFDEL01-22-2019DISCHARGE (KAF)17722977
26CLUW1CLE ELUM-CLE ELUM LAKE01-22-2019INFLOW (KAF)226210108
27COEI1COEUR D ALENE-COEUR D ALENE LAKE01-22-2019INFLOW (KAF)2190240191
28CSDI1NF PAYETTE-CASCADE DAM01-22-2019INFLOW (KAF)22025985
29DEDI1DEADWOOD-NEAR LOWMAN01-22-2019INFLOW (KAF)425478
30DLGM8CLARK FORK-AT DEER LODGE01-22-2019DISCHARGE (KAF)636892
31DRMM8CLARK FORK-NR DRUMMOND01-22-2019DISCHARGE (KAF)170MM
32DWRI1NF CLEARWATER-DWORSHAK DAM01-22-2019INFLOW (KAF)18491845100
33EASW1YAKIMA-AT EASTON01-22-2019DISCHARGE (KAF)8410085
34EMMI1PAYETTE-NEAR EMMETT01-22-2019DISCHARGE (KAF)52779766
35FCFM8NF FLATHEAD-NEAR COLUMBIA FALLS01-22-2019DISCHARGE (KAF)40257969
36GCDW1COLUMBIA-GRAND COULEE DAM01-22-2019INFLOW (KAF)189772146188
37GIBO3UMATILLA-NEAR GIBBON01-22-2019DISCHARGE (KAF)9482115
38HALI1BIG WOOD-AT HAILEY01-22-2019DISCHARGE (KAF)549060
39HEII1SNAKE-NEAR HEISE01-22-2019DISCHARGE (KAF)11951174102
40HHWM8SF FLATHEAD-HUNGRY HORSE DAM01-22-2019INFLOW (KAF)60580675
41HODO3HOOD-NEAR TUCKER BRIDGE01-22-2019DISCHARGE (KAF)26228791
42HOPI1PEND OREILLE-PEND OREILLE LAKE NR HOPE01-22-2019LAKE ELEVATION (FT)MMM
43HOTI1BRUNEAU-NEAR HOT SPRINGS01-22-2019DISCHARGE (KAF)7111263
44HWRI1BIG LOST-AT HOWELL RANCH NEAR CHILLY01-22-2019DISCHARGE (KAF)284168
45IHDW1SNAKE-ICE HARBOR DAM01-22-2019INFLOW (KAF)100201413571
46IPDI1HENRYS FORK-ISLAND PARK DAM01-22-2019INFLOW (KAF)13914696
47JDAO3COLUMBIA-JOHN DAY DAM01-22-2019INFLOW (KAF)335994366577
48JKSW4SNAKE-NEAR JACKSON01-22-2019DISCHARGE (KAF)45849792
49JLKW4SNAKE-JACKSON LAKE AT DAM01-22-2019INFLOW (KAF)19023182
50KADW1KACHESS-KACHESS DAM01-22-2019INFLOW (KAF)8577110
51KEDW1YAKIMA-KEECHELUS LAKE01-22-2019INFLOW (KAF)9481117
52KERM8FLATHEAD-KERR DAM01-22-2019INFLOW (KAF)1521257359
53KIOW1YAKIMA-AT KIONA01-22-2019DISCHARGE (KAF)71396474
54LAUW1KETTLE-AT LAURIER01-22-2019DISCHARGE (KAF)61281275
55LEOI1KOOTENAI-AT LEONIA01-22-2019DISCHARGE (KAF)1699222876
56LGDW1SNAKE-LOWER GRANITE DAM01-22-2019INFLOW (KAF)96931398469
57LGSW1SNAKE-LITTLE GOOSE DAM01-22-2019INFLOW (KAF)96931404069
58LLKW1SPOKANE-AT LONGLAKE01-22-2019INFLOW (KAF)2409284185
59LMNW1SNAKE-LOWER MONUMENTAL DAM01-22-2019INFLOW (KAF)100201430670
60LUCI1BOISE-LUCKY PEAK DAM01-22-2019INFLOW (KAF)647MM
61LWRI1LITTLE WOOD-LITTLE WOOD DAM01-22-2019INFLOW (KAF)294663
62LYDM8KOOTENAI-LIBBY DAM01-22-2019INFLOW (KAF)1254172773
63MACI1BIG LOST-MACKAY RESERVOIR NEAR MACKAY01-22-2019INFLOW (KAF)3632113
64MAGI1BIG WOOD-MAGIC DAM01-22-2019INFLOW (KAF)5614638
65MCDW1COLUMBIA-MCNARY DAM01-22-2019INFLOW (KAF)316964128377
66MILI1SNAKE-AT MILNER01-22-2019DISCHARGE (KAF)7976010
67MODO3DESCHUTES-AT MOODY NR BIGGS01-22-2019DISCHARGE (KAF)1404159688
68MONO3NF JOHN DAY-AT MONUMENT01-22-2019DISCHARGE (KAF)32954061
69MYKO3MCKAY CREEK-NEAR PILOT ROCK01-22-2019DISCHARGE (KAF)374190
70NACW1NACHES-NEAR NACHES01-22-2019DISCHARGE (KAF)24627390
71NOXM8CLARK FORK-NOXON RAPIDS DAM01-22-2019INFLOW (KAF)3281519063
72ORFI1CLEARWATER-AT OROFINO01-22-2019DISCHARGE (KAF)2459259695
73OWYO3OWYHEE-OWYHEE DAM01-22-2019INFLOW (KAF)19933859
74PARI1BOISE-NEAR PARMA01-22-2019DISCHARGE (KAF)376348108
75PARW1YAKIMA-NEAR PARKER01-22-2019DISCHARGE (KAF)48061878
76PATW1METHOW-NEAR PATEROS01-22-2019DISCHARGE (KAF)21031068
77PDTO3UMATILLA-AT PENDLETON01-22-2019DISCHARGE (KAF)199196102
78PESW1WENATCHEE-AT PESHASTIN01-22-2019DISCHARGE (KAF)60265991
79PIHI1PORTNEUF-AT POCATELLO01-22-2019DISCHARGE (KAF)729873
80PITW1KLICKITAT-NEAR PITT01-22-2019DISCHARGE (KAF)34650169
81PLDI1SF SNAKE-PALISADES DAM01-22-2019INFLOW (KAF)958112186
82PRTI1PRIEST-NEAR PRIEST RIVER01-22-2019DISCHARGE (KAF)40446387
83PRWW1COLUMBIA-PRIEST RAPIDS DAM01-22-2019INFLOW (KAF)208622483084
84RCCM8ROCK CREEK-NEAR CLINTON01-22-2019DISCHARGE (KAF)709573
85REXI1HENRYS FORK-AT REXBURG01-22-2019DISCHARGE (KAF)50254991
86RIDI1WILLOW CREEK-RIRIE DAM01-22-2019INFLOW (KAF)313589
87RILW1TIETON-RIMROCK LAKE NEAR RIMROCK01-22-2019INFLOW (KAF)8611277
88RRHW1COLUMBIA-ROCKY REACH DAM01-22-2019INFLOW (KAF)202682610478
89SATI1ST MARIES-NEAR SANTA01-22-2019DISCHARGE (KAF)140137102
90SERO3JOHN DAY-AT SERVICE CK01-22-2019DISCHARGE (KAF)49079761
91SHYI1SNAKE-NEAR SHELLEY01-22-2019DISCHARGE (KAF)1206134790
92SIFI1SNAKE-AB EAGLE ROCK NR IDAHO FALLS01-22-2019DISCHARGE (KAF)1299131699
93SJMI1ST JOE-AT ST MARIES01-22-2019STAGE (FT)MMM
94SNAI1SNAKE-AT BLACKFOOT01-22-2019DISCHARGE (KAF)1029118487
95SPDI1CLEARWATER-AT SPALDING01-22-2019DISCHARGE (KAF)3795447085
96SPOW1SPOKANE-AT SPOKANE01-22-2019DISCHARGE (KAF)2040MM
97SRGM8CLARK FORK-AT ST REGIS01-22-2019DISCHARGE (KAF)1346163682
98STRM8ST. REGIS-NEAR ST. REGIS01-22-2019DISCHARGE (KAF)10916765
99SWAI1SNAKE-BELOW SWAN FALLS01-22-2019DISCHARGE (KAF)1756272564
100TCHW1WALLA WALLA-NEAR TOUCHET01-22-2019DISCHARGE (KAF)21121996
101TDAO3COLUMBIA-THE DALLES DAM01-22-2019INFLOW (KAF)340304534475
102TEAI1TETON-NEAR ST. ANTHONY01-22-2019DISCHARGE (KAF)13315387
103TNAW1TEANAWAY-BELOW FORKS01-22-2019DISCHARGE (KAF)126116108
104TONW1OKANOGAN-NEAR TONASKET01-22-2019DISCHARGE (KAF)46159977
105TRYO3GRANDE RONDE-TROY01-22-2019DISCHARGE (KAF)74597676
106UMAO3UMATILLA-NEAR UMATILLA01-22-2019DISCHARGE (KAF)177177100
107UMTW1YAKIMA-AT UMTANUM01-22-2019DISCHARGE (KAF)49750998
108UNDW1WHITE SALMON-NEAR UNDERWOOD01-22-2019DISCHARGE (KAF)29335283
109VALO3MALHEUR-NEAR VALE01-22-2019DISCHARGE (KAF)606296
110WANW1COLUMBIA-WANAPUM DAM01-22-2019INFLOW (KAF)208642455085
111WEII1SNAKE-AT WEISER01-22-2019DISCHARGE (KAF)3229494965
112WELW1COLUMBIA-WELLS DAM01-22-2019INFLOW (KAF)199312569778
113WGCM8MF FLATHEAD-NEAR WEST GLACIER01-22-2019DISCHARGE (KAF)38255069
114WHBI1SALMON-AT WHITEBIRD01-22-2019DISCHARGE (KAF)1665223774
115WRMO3MALHEUR-WARM SPRINGS DAM01-22-2019INFLOW (KAF)437657
116WSRI1WEISER-NEAR WEISER01-22-2019DISCHARGE (KAF)30537382